This is the latest recevied weather packets stored in our database for station/object KI4BSX. If no packets are shown the sender has not sent any weather packets the latest 10 day(s).
| Time | Temp. | Humidity | Pressure | Rain* | Wind** | Luminosity | Snow |
|---|---|---|---|---|---|---|---|
| 1777812219 | 8.33° C | 98% | 1022.9 hPa | 0 mm | - | - | - |
| 1777811917 | 7.22° C | 97% | 1022.7 hPa | 0 mm | - | - | - |
| 1777811616 | 6.67° C | 97% | 1022.9 hPa | 0 mm | - | - | - |
| 1777811311 | 5.56° C | 97% | 1022.8 hPa | 0 mm | - | - | - |
| 1777811008 | 5.56° C | 97% | 1022.6 hPa | 0 mm | - | - | - |
| 1777810706 | 5° C | 97% | 1022.7 hPa | 0 mm | - | - | - |
| 1777810402 | 5° C | 97% | 1022.8 hPa | 0 mm | - | - | - |
| 1777810098 | 4.44° C | 97% | 1022.8 hPa | 0 mm | - | - | - |
| 1777809796 | 4.44° C | 97% | 1022.9 hPa | 0 mm | - | - | - |
| 1777809493 | 3.89° C | 97% | 1022.8 hPa | 0 mm | - | - | - |
| 1777809191 | 3.89° C | 97% | 1022.6 hPa | 0 mm | - | - | - |
| 1777808888 | 3.33° C | 97% | 1022.8 hPa | 0 mm | - | - | - |
| 1777808585 | 3.33° C | 97% | 1022.7 hPa | 0 mm | - | - | - |
| 1777808282 | 2.78° C | 97% | 1022.5 hPa | 0 mm | - | - | - |
| 1777807981 | 2.78° C | 97% | 1022.5 hPa | 0 mm | - | - | - |
| 1777807678 | 2.78° C | 96% | 1022.2 hPa | 0 mm | - | - | - |
| 1777807376 | 2.78° C | 96% | 1022.3 hPa | 0 mm | - | - | - |
| 1777807071 | 2.78° C | 96% | 1022.3 hPa | 0 mm | - | - | - |
| 1777806769 | 2.78° C | 96% | 1022.2 hPa | 0 mm | - | - | - |
| 1777806464 | 2.78° C | 96% | 1022.1 hPa | 0 mm | - | - | - |
| 1777806161 | 2.22° C | 96% | 1021.9 hPa | 0 mm | - | - | - |
| 1777805858 | 2.22° C | 96% | 1022.1 hPa | 0 mm | - | - | - |
| 1777805555 | 2.22° C | 96% | 1021.7 hPa | 0 mm | - | - | - |
| 1777805252 | 2.78° C | 96% | 1021.6 hPa | 0 mm | - | - | - |
| 1777804950 | 2.78° C | 96% | 1021.6 hPa | 0 mm | - | - | - |
* Rain latest hour (hover to see other rain measurements)
** Current wind speed in m/s (hover to see current wind gust speed)